Starlink 4170

operational
NORAD ID: 53140 Int'l Des: 2022-083 Owner: SPXS Country: US Constellation: starlink
LEOCIRCULAR

关于 Starlink 4170

正在加载描述...

实时位置

正在加载3D地球...

即将过境

高度历史

Altitude vs Time

uPlot chart will show altitude changes over time

两行轨道根数

1 53140U 22083J 25304.62797131 .00000372 00000-0 41451-4 0 9999
2 53140 53.2192 33.5021 0001302 99.3332 260.7807 15.08834630181734
Epoch: Oct 31, 2025 • Age: 29 hours

当前状态

高度 539.9 km
速度 7.59 km/s
星下点 10.44°N, 58.5°E
发射日期 Jul 17, 2022
运行时间 3.2 years
类型 internet

技术详情

分类 Payload
质量 297.00 kg
干质量 275.00 kg
总质量 297.00 kg
长度 0.20 m
直径 2.80 m
跨度 9.00 m
形状 Box + pan
制造商 SPXS
平台类型 Starlink
阶段状态 In Orbit
所有者/国家 SPXS/US

大型星座

Loading constellations...